星链-33802 (STARLINK-33802)

导读

STARLINK-33802是美国SpaceX星链互联网星座的卫星,于2025年6月13日发射,归属星链星座低轨通信网络建设序列。星链旨在为全球提供高覆盖、低延迟的宽带互联网服务,该卫星入轨后将进一步补全美卫星通信网络,提升星链系统服务容量与覆盖能力。

基本信息
目录编号:
64392
目录名称:
STARLINK-33802
国际标识:
2025-127Y
轨道中心:
EARTH
卫星名称:
星链-33802
卫星全名:
星链-33802 (STARLINK-33802)
卫星状态:
在轨 (已飞行448 天)
发射日期:
2025-06-13 UTC
国别 :
美国 (US)
星等 :
--
轨道信息
数据来源 国际轨道数据
星历时间: 2026-09-04T09:35:52+0800
7小时前
查看轨道信息
半长轴: 6861.171km
偏心率: 0.0001334
轨道倾角: 43.004°
近地点辐角 274.605°
升交点赤经 252.737°
平近点角 85.465°
近地点: 482.118km
远地点: 483.95km
周期: 94.266分钟
每日圈数: 15.275853
详细信息
固有亮度:
5
最大亮度:
2.5
卫星平台:
Starlink V1.0
覆盖范围:
全球
运营商:
太空探索技术公司
运营商所在国:
美国
制造商(研发单位):
太空探索技术公司
制造商所在国:
美国
使用方式:
暂无
卫星简介
Starlink 计划是 SpaceX 推出的全球卫星互联网项目,通过发射低轨道卫星,为全球尤其是偏远地区提供高速、低延迟的互联网服务。自 2019 年起,Starlink 已部署数千颗卫星,旨在缩小全球数字鸿沟,推动互联网普及。该项目还为军事、航空等行业提供通信支持,带来广泛经济效益。
2D轨道图
3D轨道图
轨道高度分析图
轨道倾角分析图
轨道综合分析图
查看轨道综合分析图